Location: Pitton
(51.0667°N, 1.7000°W)
Time: 22:29:35
(UTC+00:00)

Resurs 1-3 - Pass Details

Date: 17 September 2019
Orbit: 630 x 632 km, 98.0° (Epoch: 15 October)

Event Time Altitude Azimuth Distance (km) Brightness Sun altitude
Exits shadow 20:16:51 24° 172° (S) 1,313 4.9 -18.7°
Maximum altitude 20:19:29 78° 257° (WSW) 654 3.7 -19.1°
Drops below altitude 10° 20:23:54 10° 343° (NNW) 2,027 6.8 -19.7°
Sets 20:26:07 0° 345° (NNW) 2,940 7.7 -20.0°
